This demonstration page uses our WeatherBlox Daily Observations layout. Learn more.

Left ArrowRight Arrow

Hourly Observations for February 1, 2016

Temp ( °F °C ) Dew Point ( °F °C ) Humidity (%) Winds ( mph kmh ) Pressure ( in mb ) Visibility ( mi km ) Precip ( " mm )
12:11 am 00:11 Mostly Cloudy 26 -3.3 25 -3.9 96 96 WSW 6 9 30.06 1018 9 14 0.00 0.00
12:53 am 00:53 Cloudy 25 -3.9 23 -5 92 92 WSW 7 11 29.99 1016 8 13 0.00 0.00
1:03 am 01:03 Cloudy 25 -4 23 -5 93 93 WSW 6 9 30.06 1018 9 14 0.00 0.00
1:31 am 01:31 Cloudy 25 -3.9 23 -5 92 92 SSW 3 6 30.06 1018 10 16 0.00 0.00
1:40 am 01:40 Cloudy 25 -4 23 -5 93 93 SSW 5 7 30.06 1018 10 16 0.00 0.00
1:53 am 01:53 Mostly Cloudy 25 -3.9 23 -5 92 92 SW 5 7 29.99 1016 9 14 0.00 0.00
2:53 am 02:53 Mostly Cloudy 23 -5 21 -6.1 92 92 SW 8 13 30.01 1016 10 16 0.00 0.00
3:05 am 03:05 Mostly Cloudy 25 -3.9 23 -5 92 92 SW 7 11 30.06 1018 10 16 0.00 0.00
3:53 am 03:53 Cloudy 25 -3.9 24 -4.4 96 96 WNW 5 7 30.01 1016 9 14 0.00 0.00
4:37 am 04:37 Cloudy 26 -3.3 25 -3.9 96 96 SW 3 6 30.06 1018 10 16 0.00 0.00
4:53 am 04:53 Cloudy 27 -2.8 25 -3.9 92 92 W 6 9 30.01 1016 10 16 0.00 0.00
5:53 am 05:53 Cloudy 27 -2.8 25 -3.9 92 92 WSW 9 15 30.01 1016 10 16 0.00 0.00
6:53 am 06:53 Cloudy 27 -2.8 25 -3.9 92 92 WSW 7 11 30.03 1017 10 16 0.00 0.00
7:53 am 07:53 Cloudy 27 -2.8 25 -3.9 92 92 WSW 6 9 30.04 1017 10 16 0.00 0.00
8:53 am 08:53 Cloudy 28 -2.2 25 -3.9 88 88 WSW 6 9 30.06 1018 10 16 0.00 0.00
9:53 am 09:53 Cloudy 28 -2.2 26 -3.3 92 92 WSW 6 9 30.06 1018 10 16 0.00 0.00
10:46 am 10:46 Cloudy 28 -2 27 -3 93 93 W 5 7 30.15 1021 10 16 0.00 0.00
10:53 am 10:53 Cloudy 30 -1.1 26 -3.3 85 85 W 6 9 30.08 1019 10 16 0.00 0.00
11:12 am 11:12 Cloudy 28 -2 27 -3 93 93 WSW 6 9 30.15 1021 10 16 0.00 0.00
11:53 am 11:53 Cloudy 30 -1.1 26 -3.3 85 85 WSW 3 6 30.07 1018 10 16 0.00 0.00
12:04 pm 12:04 Cloudy 30 -1 27 -3 86 86 SSW 3 6 30.09 1019 10 16 0.00 0.00
12:53 pm 12:53 Cloudy 32 0 26 -3.3 79 79 Calm 30.06 1018 10 16 0.00 0.00
1:53 pm 13:53 Cloudy 32 0 25 -3.9 75 75 WSW 3 6 30.06 1018 10 16 0.00 0.00
2:53 pm 14:53 Cloudy 33 0.6 24 -4.4 70 70 Calm 30.07 1018 10 16 0.00 0.00
3:53 pm 15:53 Cloudy 33 0.6 24 -4.4 70 70 Calm 30.07 1018 10 16 0.00 0.00
4:32 pm 16:32 Cloudy 34 1 28 -2 81 81 W 6 9 29.91 1013 10 16 0.00 0.00
4:50 pm 16:50 Cloudy with Light Snow 32 0 28 -2 87 87 WNW 10 17 29.91 1013 2 3 0.00 0.03
4:51 pm 16:51 Cloudy with Light Snow 32 0 28 -2 87 87 WNW 10 17 29.91 1013 2 3 0.00 0.00
4:53 pm 16:53 Cloudy 33 0.6 24 -4.4 70 70 Calm 30.08 1019 10 16 0.00 0.00
5:53 pm 17:53 Mostly Cloudy 29 -1.7 25 -3.9 85 85 E 6 9 30.10 1019 10 16 0.00 0.00
6:53 pm 18:53 Cloudy 27 -2.8 25 -3.9 92 92 ESE 3 6 30.11 1020 10 16 0.00 0.00
7:53 pm 19:53 Cloudy 27 -2.8 25 -3.9 92 92 ESE 5 7 30.11 1020 10 16 0.00 0.00
8:53 pm 20:53 Cloudy 28 -2.2 24 -4.4 85 85 ESE 5 7 30.11 1020 10 16 0.00 0.00
9:53 pm 21:53 Cloudy 27 -2.8 23 -5 85 85 ESE 5 7 30.11 1020 10 16 0.00 0.00
10:53 pm 22:53 Cloudy 27 -2.8 22 -5.6 81 81 S 5 7 30.11 1020 10 16 0.00 0.00
11:53 pm 23:53 Cloudy 27 -2.8 23 -5 85 85 Calm 30.11 1020 10 16 0.00 0.00

Powered by AerisWeather